Wind_Speed
106 103 100 95 89 82 76 70 66 61 57 54 51 47 43 40 38 35 35 35 36 36 35 34 34 35 37 38 41 44 47 49 52 54 56 60 63 67 70 74 78 81 84 88 92 97 102 106 111 115 119 123 127 130 134 137 141 145 148 151 154 157 159 161 162 162 163 164 164 164 164 163 162 161 160 159 158 157 157 157 159 161 164 166 168
107 104 101 97 91 84 78 72 68 63 59 55 52 49 46 42 39 37 35 34 35 36 36 35 35 35 35 37 38 40 43 46 48 51 53 55 58 62 65 69 73 77 80 83 87 92 96 100 105 110 114 118 121 125 128 132 135 139 142 146 149 152 155 158 159 161 162 164 164 164 164 164 163 162 161 160 159 158 158 157 158 159 161 162 164
107 104 101 98 93 87 80 75 70 65 61 57 53 50 48 44 41 39 37 35 34 34 35 36 36 35 35 36 37 38 40 42 45 47 50 52 54 57 61 65 68 72 76 79 82 86 91 94 99 104 109 113 116 119 123 126 129 132 136 139 143 146 149 152 155 157 160 162 163 164 164 164 163 162 162 161 160 160 159 158 158 159 160 160 161
108 104 101 98 94 88 82 77 72 67 63 58 54 51 49 46 43 40 38 36 35 34 34 34 35 36 35 35 35 37 37 39 41 44 46 49 51 53 56 60 64 67 71 75 78 81 86 90 94 98 102 106 111 115 118 121 124 127 130 133 136 140 143 146 148 151 154 158 160 162 163 163 163 162 162 162 161 160 160 159 159 159 160 160 160
108 104 101 98 94 89 84 78 74 70 65 60 56 52 50 47 44 41 39 36 35 35 35 34 33 34 35 35 34 35 36 37 38 40 42 45 47 50 52 56 59 63 67 70 74 77 81 85 89 93 96 100 105 111 115 118 121 123 126 128 132 134 137 140 142 145 148 151 154 157 159 161 161 162 162 161 161 161 160 160 160 160 160 160 160
108 104 100 97 94 89 84 80 76 72 67 63 58 54 51 49 46 43 41 38 35 34 35 35 34 32 33 34 34 34 34 35 36 37 38 41 44 46 49 52 55 59 62 66 70 74 77 81 85 88 92 96 100 105 109 113 116 119 121 124 127 130 132 135 136 138 142 145 148 151 154 156 157 159 160 161 161 161 161 160 160 160 160 161 161
108 104 100 96 93 89 84 81 77 73 70 65 60 56 52 49 47 44 42 40 37 34 33 35 35 34 32 32 34 34 33 33 34 35 35 37 40 43 46 48 51 54 58 62 66 70 74 77 80 83 87 91 95 98 102 106 110 114 117 119 121 124 126 129 131 133 135 138 141 144 147 150 153 154 157 159 160 160 160 160 159 159 159 160 161
108 103 99 96 92 88 84 80 77 74 71 67 62 57 54 51 48 46 43 41 39 36 33 33 34 35 34 32 32 33 33 32 32 33 34 34 37 39 42 45 47 50 53 57 61 66 70 73 76 79 82 86 90 93 96 100 103 107 111 114 116 118 120 123 126 128 130 132 135 138 141 145 148 150 152 155 157 157 157 158 158 158 159 160 161
107 103 98 95 91 87 83 79 77 74 71 68 64 59 55 52 49 47 45 43 41 38 35 33 32 34 34 33 32 32 32 32 31 32 33 33 34 36 39 41 44 46 49 53 56 61 65 69 72 75 78 81 85 88 91 94 97 100 103 106 109 112 115 117 120 123 125 127 129 131 135 139 142 145 147 150 152 153 154 155 156 157 158 159 160
106 101 97 93 90 86 81 78 76 73 71 69 65 61 57 53 50 48 46 44 42 40 37 34 32 32 33 33 33 32 32 32 32 31 31 32 32 33 35 38 41 43 46 49 52 56 60 64 67 71 74 77 80 83 86 89 92 95 97 100 102 105 109 112 115 118 120 122 124 126 129 132 136 139 142 145 147 149 150 152 153 154 156 158 159
104 100 95 91 88 84 80 77 75 73 71 69 66 62 58 54 51 49 47 45 43 41 39 36 34 32 32 32 32 32 32 32 32 31 30 30 32 32 33 35 38 40 43 46 48 51 55 58 62 66 70 73 76 79 82 85 88 90 93 95 97 99 102 106 109 112 115 117 119 121 123 126 130 134 138 140 143 145 146 148 149 151 153 155 156
102 98 94 90 86 83 79 76 74 72 70 68 66 63 59 56 52 50 47 46 44 42 40 38 36 33 32 31 31 31 32 32 32 32 30 29 30 31 32 32 35 37 40 43 45 48 50 53 57 61 65 69 72 75 78 80 83 86 89 91 93 95 97 100 103 106 109 112 115 117 118 120 124 129 133 136 138 140 142 144 145 147 149 151 152
100 96 92 88 84 81 77 74 73 71 69 67 66 63 60 57 53 51 48 46 45 43 41 39 37 35 33 31 30 30 30 31 32 32 31 30 29 30 31 32 33 34 37 40 42 44 47 49 52 56 60 64 67 71 74 76 79 82 85 87 89 91 92 94 97 99 102 105 109 112 114 117 120 124 129 132 135 137 138 140 141 142 144 146 147
97 94 90 86 82 78 75 73 72 70 68 67 65 63 61 58 55 52 49 46 45 44 42 39 37 36 34 32 31 30 29 30 31 31 32 31 30 29 30 31 32 32 34 37 39 41 43 46 48 52 55 59 62 66 69 72 75 78 81 83 85 87 89 90 92 94 96 99 102 106 110 113 116 120 124 127 130 132 134 135 136 137 139 141 143
94 91 88 84 80 76 74 72 70 69 68 66 65 63 61 59 56 53 50 47 45 44 42 40 38 37 35 33 32 31 29 28 29 30 31 31 31 30 29 30 31 32 33 35 37 39 41 43 45 48 51 54 58 61 65 68 71 74 77 79 81 83 85 86 87 89 91 93 96 100 103 106 111 115 119 122 125 127 129 131 132 133 135 137 139
91 88 85 82 77 74 72 70 69 68 67 65 64 63 61 59 57 54 51 49 46 44 43 41 38 37 36 34 32 31 30 28 28 29 30 30 31 31 30 30 30 31 32 33 34 37 38 40 42 44 47 50 53 57 61 64 67 70 72 75 78 80 81 82 83 85 86 88 91 94 97 100 104 108 113 116 119 121 124 126 128 129 131 132 134
88 85 82 79 75 72 70 69 67 67 66 65 63 62 60 59 57 55 52 49 47 45 44 42 39 37 36 35 33 31 30 29 27 28 29 30 31 31 31 30 30 30 31 31 32 34 36 38 40 41 44 47 50 52 56 60 63 66 68 71 74 76 77 78 80 81 83 84 86 89 91 94 97 101 105 108 112 115 118 120 122 123 125 127 129
84 81 78 76 72 70 68 67 66 65 64 63 62 61 60 59 57 55 53 50 48 46 45 43 40 38 36 35 34 31 30 29 28 27 27 28 29 31 31 30 30 30 30 31 31 32 34 36 38 40 42 44 46 49 52 55 58 62 64 67 69 71 73 75 77 78 80 81 82 84 86 88 91 95 98 102 105 108 111 113 116 118 120 122 124
80 78 75 72 70 68 67 66 64 63 63 62 61 61 59 58 57 55 53 51 48 46 44 43 42 39 37 36 34 32 30 29 28 27 26 27 28 29 30 31 30 30 30 30 31 31 32 34 36 38 40 42 44 46 48 50 53 57 60 63 65 66 68 71 74 76 77 79 80 81 82 84 86 89 93 96 99 102 104 107 110 113 115 116 119
77 74 72 70 68 67 66 65 63 62 61 61 60 60 59 57 56 55 54 52 49 46 44 43 42 40 38 37 36 34 31 29 28 27 26 26 26 27 28 30 30 30 30 30 30 31 31 32 34 36 38 40 42 44 46 47 49 52 55 58 60 62 65 68 71 72 74 76 77 78 79 80 82 85 88 90 93 96 98 102 105 107 109 111 114
73 71 69 67 66 65 65 65 63 61 60 60 59 59 58 56 55 54 54 52 50 47 45 43 41 40 38 37 36 35 33 30 28 27 26 25 26 26 27 28 29 29 30 30 30 30 31 32 33 34 36 38 40 42 43 45 46 48 50 52 55 58 62 65 67 69 71 73 75 76 77 78 79 81 84 86 88 91 94 96 99 102 104 107 110
70 68 66 65 65 64 64 64 62 60 59 58 58 58 57 56 55 54 53 52 51 49 46 44 43 41 39 37 35 35 34 32 29 27 26 25 25 25 26 26 28 29 29 29 29 30 30 31 32 33 34 36 38 40 41 43 44 45 47 48 50 54 58 61 64 66 69 71 73 74 75 76 77 78 80 82 84 86 89 92 94 97 99 102 105
68 66 65 64 63 63 63 62 61 59 58 57 56 57 56 55 54 53 52 52 51 49 47 45 43 41 40 38 36 34 33 32 30 28 26 25 25 25 25 25 26 27 28 28 29 29 29 30 31 32 34 35 36 38 40 41 42 43 45 46 48 50 54 57 60 63 66 68 70 72 73 74 75 76 77 79 80 82 84 87 89 92 94 97 100
66 64 63 63 62 62 61 61 60 58 56 55 55 55 55 55 54 52 52 51 51 50 48 46 44 42 40 39 38 36 34 32 31 29 27 25 24 24 25 25 25 26 27 28 28 28 28 29 30 31 32 34 35 36 38 39 40 41 43 44 46 48 51 53 56 59 62 65 67 69 71 73 74 75 75 76 77 78 80 82 84 87 89 92 94
65 63 63 62 61 61 60 60 59 57 55 54 54 53 54 54 53 52 51 50 50 50 49 46 44 43 40 39 38 37 36 34 32 30 28 26 24 23 23 24 25 25 25 26 27 27 27 28 28 29 30 32 34 35 36 37 39 40 41 42 44 47 49 51 53 55 58 61 64 66 68 70 72 73 74 74 75 75 76 78 80 83 85 88 90
64 62 62 61 60 60 59 58 57 56 55 54 53 52 52 52 52 51 50 49 49 49 49 47 45 43 41 39 37 36 36 35 33 31 29 27 25 23 22 23 24 24 24 25 26 26 26 27 27 28 29 29 31 33 35 36 37 38 39 41 42 44 47 49 51 53 55 57 60 63 65 66 68 70 72 73 73 74 75 77 79 81 83 85 87
63 62 61 60 59 58 57 56 55 55 54 54 53 52 52 51 50 50 49 49 48 48 48 48 46 44 42 40 38 36 36 35 34 32 30 28 27 25 23 22 23 23 24 24 24 25 26 26 26 27 28 28 29 31 33 35 36 37 38 39 41 42 44 46 49 51 53 54 56 58 60 62 65 67 69 71 72 74 76 77 78 80 81 83 85
63 61 60 59 58 57 55 54 53 53 53 53 53 52 51 50 49 49 48 48 47 47 47 47 46 45 43 41 39 37 36 35 34 33 31 29 28 26 24 23 22 23 23 23 24 24 25 25 25 26 27 28 29 29 31 32 34 36 38 39 40 41 42 44 46 48 50 52 54 55 57 58 61 63 66 68 70 73 75 76 77 79 80 81 82
62 61 59 58 57 55 54 52 51 51 51 51 52 52 51 50 49 48 47 47 47 47 46 46 45 45 44 42 40 37 36 35 35 34 32 31 29 28 27 25 23 22 23 23 23 23 24 24 25 25 26 27 28 29 30 31 32 34 36 38 39 40 41 42 44 45 47 49 51 53 54 56 57 59 62 64 67 70 72 74 75 77 78 79 80
61 60 58 57 56 54 52 51 51 50 50 49 50 51 51 50 49 48 46 45 45 46 46 45 45 44 43 42 41 38 36 35 34 34 33 31 30 28 28 27 25 24 23 23 23 23 23 24 24 25 25 26 27 28 29 31 32 32 34 36 38 40 40 41 42 43 45 47 48 50 52 54 55 57 59 61 63 65 67 70 72 74 76 77 79
60 59 57 56 54 53 52 51 50 50 49 48 48 48 49 50 49 48 46 44 44 44 44 45 44 44 43 42 41 40 38 35 34 33 32 31 30 29 28 27 27 26 24 24 23 23 23 23 24 24 25 25 26 27 28 30 31 32 33 34 36 38 39 41 42 42 43 44 46 48 49 51 53 55 57 58 60 61 62 64 67 69 72 74 77
58 57 56 55 54 52 51 51 50 50 49 47 46 46 46 47 48 48 47 45 44 43 43 43 43 43 42 42 41 40 39 37 36 34 32 31 30 30 29 28 27 26 26 25 24 23 23 24 24 24 25 25 26 26 27 28 29 31 32 33 34 35 37 39 40 42 42 43 44 45 47 48 50 52 54 56 58 59 60 62 63 65 67 70 72
57 56 55 54 53 52 52 51 51 50 48 47 45 44 43 44 45 47 47 46 45 43 42 42 42 42 42 41 41 40 39 38 37 36 35 33 31 30 29 29 28 27 27 26 25 24 23 24 24 25 25 25 26 26 27 27 28 29 31 32 33 34 35 37 38 40 41 42 43 44 45 47 48 49 51 53 54 56 58 60 62 63 64 66 68
56 55 55 54 53 53 52 52 51 50 48 47 45 44 42 41 42 43 44 45 45 44 42 41 41 40 40 40 40 40 39 39 38 37 36 35 33 31 29 29 28 28 27 27 26 25 24 24 24 25 25 26 26 26 27 27 27 28 30 31 32 33 34 35 37 38 39 41 42 43 44 45 46 47 49 50 51 53 55 57 59 61 63 64 66
56 55 55 53 53 52 52 51 50 49 47 46 45 43 42 41 40 40 40 42 43 43 42 41 40 39 39 39 39 39 39 39 39 39 38 37 35 33 31 29 29 28 28 27 27 26 25 24 24 25 25 26 26 26 27 27 28 28 29 30 31 32 33 34 35 37 38 39 40 42 43 44 45 46 47 48 49 50 52 53 55 57 59 61 63
56 55 54 52 52 51 51 50 49 47 46 45 44 43 42 41 40 39 38 39 40 41 41 40 39 38 38 37 37 37 38 38 39 39 39 38 37 35 33 31 29 28 28 28 27 27 26 26 25 25 25 26 26 26 27 28 28 29 29 29 30 31 32 33 34 35 37 38 39 40 42 43 44 45 46 46 47 48 49 51 52 54 56 58 60
55 54 52 51 50 50 50 49 47 46 45 45 44 43 42 41 40 39 38 38 38 39 39 39 38 37 37 37 36 35 36 37 38 38 39 39 38 37 36 34 32 30 28 28 28 27 27 27 26 26 26 26 26 26 27 28 28 29 29 30 30 30 31 32 33 34 35 36 37 39 40 41 43 43 44 45 45 46 47 48 50 51 53 55 57
54 52 51 50 50 49 48 47 46 45 45 44 43 43 42 41 40 39 38 38 38 37 37 37 37 37 37 36 36 35 34 35 36 37 39 39 39 38 37 36 35 33 31 29 29 28 28 27 27 27 27 27 26 26 27 27 28 29 30 30 31 31 31 31 32 33 34 35 36 37 38 40 41 42 43 43 44 45 45 46 47 48 50 52 54
52 51 50 49 49 49 48 47 46 45 44 44 43 43 42 41 40 39 39 38 37 37 36 36 36 37 37 37 37 36 35 35 35 36 37 38 38 38 37 36 36 35 34 32 31 30 29 28 28 28 28 28 27 27 27 27 28 28 29 30 31 32 32 32 32 32 33 34 35 35 37 38 39 41 41 42 43 43 44 45 46 46 47 49 50
52 50 50 49 49 48 47 46 46 45 44 43 42 42 41 40 40 39 39 38 37 36 35 35 35 35 36 36 37 36 36 36 36 36 36 37 37 37 37 37 36 35 35 34 33 32 31 30 29 28 28 29 29 28 28 28 28 29 29 30 31 31 32 32 32 32 33 33 34 35 36 36 37 39 40 41 42 42 43 44 45 45 46 47 48
52 51 50 49 49 48 47 46 45 44 43 42 42 41 40 40 39 39 38 38 37 36 36 35 34 34 34 35 35 36 36 36 37 37 37 37 37 37 37 37 36 36 36 35 34 34 33 32 31 30 29 29 29 30 29 29 29 29 30 30 30 31 32 32 33 33 33 34 34 35 35 36 36 37 38 40 41 42 42 43 43 44 45 46 46
52 51 50 49 48 47 46 45 44 43 42 41 41 40 39 39 38 38 38 37 37 37 36 35 35 34 33 33 34 35 35 35 36 36 37 37 37 37 37 37 37 37 37 36 36 35 34 33 32 31 30 30 29 30 30 30 30 30 31 31 31 31 32 32 33 33 34 34 35 35 35 35 36 36 37 38 39 41 41 42 42 43 44 44 45
51 50 49 48 47 46 45 44 43 42 41 41 40 39 39 38 38 37 37 37 37 37 37 36 35 35 34 33 34 34 34 35 35 36 36 37 37 37 37 37 37 37 37 37 37 37 36 34 33 32 31 30 30 30 30 31 31 31 31 31 32 32 32 33 33 33 34 35 35 35 35 35 36 36 36 37 38 39 40 41 42 42 43 43 44
50 50 49 48 47 46 45 44 42 41 40 40 39 39 39 38 37 37 37 36 37 37 37 37 36 36 35 34 34 34 34 35 35 36 36 37 37 37 37 37 37 38 38 38 38 38 38 37 35 33 32 31 30 30 30 31 31 32 32 32 32 32 33 33 34 34 34 34 35 36 36 36 36 36 36 37 37 38 39 40 41 42 42 43 43
50 49 49 48 47 46 45 43 42 41 40 40 39 39 39 38 38 37 37 37 37 37 37 37 37 36 36 35 35 35 35 36 36 36 37 37 37 38 38 38 38 38 39 39 40 40 39 38 37 35 34 32 31 31 30 30 31 32 32 33 33 33 33 34 34 35 35 35 35 36 36 37 37 37 37 37 37 37 38 39 40 41 42 42 43
50 50 49 48 47 46 45 43 42 41 40 40 40 40 39 39 38 38 37 37 37 37 37 37 37 37 37 37 37 37 37 37 37 38 38 38 38 38 38 39 39 39 40 41 41 41 41 40 38 36 35 33 32 31 31 31 31 31 32 33 33 33 33 33 34 35 35 35 36 36 37 37 37 38 38 38 38 37 38 38 39 40 41 42 42
51 50 49 48 47 46 45 44 43 42 41 41 41 40 40 39 39 38 38 38 38 38 38 38 38 38 37 37 37 38 38 38 39 39 39 39 39 39 39 39 40 40 41 42 42 42 42 41 40 38 36 34 33 32 31 31 31 31 32 33 33 34 33 33 34 34 35 36 36 37 37 38 38 38 38 39 39 38 38 38 39 39 40 41 42
50 50 49 48 47 46 45 44 43 43 42 42 42 41 41 40 40 39 39 39 39 39 39 39 39 39 39 38 38 38 39 39 40 40 40 40 40 40 40 41 41 42 42 43 43 44 43 42 41 40 38 36 34 33 31 31 31 32 32 33 33 34 34 34 34 34 34 35 36 37 38 39 38 38 39 39 39 39 39 39 39 39 39 40 41
50 49 48 48 47 46 45 44 44 43 43 43 43 42 42 41 41 40 40 40 40 40 40 40 40 40 40 40 39 39 40 40 40 41 41 41 41 41 42 42 43 43 44 44 44 44 44 43 42 41 40 38 36 34 33 31 31 31 32 33 33 34 34 34 34 34 34 35 35 37 38 39 39 39 39 40 40 40 40 40 39 39 39 39 40
49 49 48 48 47 46 46 45 45 44 44 44 44 43 43 43 42 42 41 41 41 41 41 41 41 41 41 41 41 41 41 41 41 42 42 42 42 42 43 43 44 45 45 45 45 45 45 44 43 42 41 39 37 36 34 32 31 31 31 32 33 34 34 35 35 35 35 35 35 36 37 38 39 40 40 40 40 41 41 41 40 40 40 40 40
49 49 48 48 47 47 46 46 45 45 45 45 45 45 44 44 44 44 43 43 43 43 43 43 43 43 43 42 42 42 42 42 42 42 43 43 43 44 44 45 46 46 47 47 46 46 45 45 43 43 41 40 38 37 35 34 32 31 31 32 33 34 35 35 35 35 35 35 35 36 36 37 38 39 40 41 41 41 41 41 41 41 41 41 40
Wind_Direction
353 352 352 352 353 353 354 354 353 351 348 346 344 340 337 333 328 322 317 313 309 305 300 294 288 281 274 267 262 260 258 256 253 250 248 247 247 246 245 244 243 242 240 238 237 236 236 235 235 235 235 235 234 234 234 234 234 234 234 234 235 235 235 236 236 237 238 238 239 239 239 239 239 238 238 238 238 238 238 238 238 239 240 240 241
352 351 351 351 351 351 352 353 353 352 349 347 345 342 339 336 332 326 321 316 312 308 304 299 293 288 281 275 268 262 259 258 256 254 251 249 247 247 246 245 244 243 242 240 238 237 236 236 235 235 235 235 236 235 235 234 234 234 234 234 234 235 235 236 236 236 237 238 238 239 239 239 239 239 239 238 238 238 238 238 238 239 239 240 240
351 350 350 350 350 350 351 352 353 352 350 348 346 344 341 338 335 330 325 320 315 311 307 303 298 293 287 281 275 268 262 259 258 257 254 252 249 247 246 246 245 244 243 242 240 238 237 236 235 235 235 235 236 236 236 236 235 235 235 235 235 235 235 235 236 236 237 238 238 238 239 239 239 239 239 239 238 238 238 238 238 239 239 239 240
350 349 349 349 349 349 349 351 352 352 351 349 347 345 343 340 337 334 329 324 319 314 309 305 300 296 292 286 280 275 269 263 260 258 257 254 252 249 247 246 245 244 243 243 242 240 239 237 236 235 235 235 236 236 236 236 236 236 235 236 236 236 235 235 236 236 237 238 238 239 239 239 239 239 239 239 239 239 239 239 239 239 239 239 240
349 348 348 348 348 348 348 349 350 351 350 349 347 346 344 342 339 336 332 327 323 318 313 308 303 298 294 290 285 279 274 269 264 260 258 257 254 251 249 247 246 245 244 243 242 241 240 239 237 236 235 235 235 235 236 236 236 236 236 235 236 236 236 236 235 236 236 237 238 239 239 239 239 239 239 239 239 239 239 239 239 239 239 240 240
347 347 347 347 347 347 347 348 349 349 350 349 348 346 345 343 341 338 335 330 326 321 317 312 307 302 297 294 290 284 279 273 268 263 260 258 256 253 251 248 246 245 244 243 242 241 241 240 239 238 236 235 235 235 235 236 236 236 236 236 236 236 236 236 235 235 235 236 237 239 240 240 240 240 240 240 239 239 239 239 239 239 240 240 240
346 346 346 346 346 346 346 346 347 348 348 348 348 347 346 345 342 340 337 333 329 324 320 316 311 306 301 296 293 289 284 278 273 268 263 259 258 256 253 250 248 246 245 243 242 241 241 240 240 239 238 237 236 236 236 236 236 237 237 237 237 236 236 237 236 236 235 235 236 237 238 239 240 240 240 240 240 240 239 239 239 239 240 240 241
345 345 345 345 345 345 345 345 346 347 347 348 347 347 346 345 344 342 340 336 332 327 323 319 315 311 307 302 297 293 289 284 279 274 268 263 259 258 255 252 250 247 245 244 243 242 241 241 240 239 239 239 238 237 237 236 236 237 237 237 237 237 237 237 237 237 236 235 235 235 237 238 239 239 240 240 240 240 240 240 240 239 239 240 240
344 344 344 344 344 343 344 344 345 346 346 346 346 346 346 346 344 343 342 339 334 330 326 322 318 314 310 307 303 298 293 289 284 278 273 267 262 259 258 255 252 249 247 245 244 243 242 242 241 240 240 239 239 239 238 237 237 237 237 238 238 238 238 237 237 237 237 236 236 235 236 237 238 239 239 239 240 240 240 240 239 239 239 239 240
342 343 343 343 342 342 342 343 344 344 345 345 345 346 346 346 345 344 343 341 337 333 329 324 321 317 313 310 307 303 298 293 289 283 278 272 266 261 258 257 255 252 249 246 245 244 243 242 241 240 240 240 240 240 239 239 238 238 238 238 238 238 238 238 238 238 238 237 236 235 235 236 237 238 239 239 239 239 239 239 239 239 239 239 239
341 341 341 342 341 341 341 342 343 343 344 344 344 345 345 346 345 344 343 342 339 335 332 328 324 320 316 313 310 307 302 297 292 288 282 277 271 266 260 258 256 254 251 249 247 245 244 243 242 241 240 240 240 240 240 240 239 239 239 238 238 237 237 237 238 238 238 237 237 236 235 235 236 237 238 238 239 239 239 238 238 238 239 239 239
340 340 340 340 341 340 340 341 342 342 343 343 343 344 344 345 345 345 344 343 341 337 334 331 327 323 319 316 312 310 307 302 296 291 286 281 275 270 265 260 258 256 254 251 249 247 246 244 243 242 241 241 240 239 239 240 240 240 239 239 238 238 237 237 237 237 237 237 237 237 236 235 235 236 237 238 238 238 238 238 238 238 238 238 239
339 339 339 339 340 339 339 340 340 341 342 342 342 343 343 344 345 345 344 344 342 338 336 334 330 326 322 318 315 312 310 306 301 296 291 285 280 274 270 264 260 257 256 254 251 249 247 246 244 243 243 242 241 240 239 239 239 239 240 240 239 238 238 237 237 237 237 237 237 237 237 236 235 235 236 237 237 238 238 238 238 237 238 238 238
338 337 337 338 338 338 338 339 340 340 340 341 341 342 342 343 344 344 344 344 343 340 337 335 333 329 325 321 317 314 311 309 305 300 294 289 284 279 273 269 263 259 257 256 254 252 250 248 246 245 244 243 242 241 241 240 239 239 239 239 239 239 239 238 238 238 237 237 237 237 237 236 236 236 236 236 237 237 238 238 238 238 237 238 238
336 336 336 337 337 337 337 338 339 339 339 340 340 341 341 342 343 344 344 344 344 342 338 336 335 332 327 323 319 315 312 310 308 304 298 292 288 283 277 272 267 263 259 257 256 255 252 250 248 246 245 244 243 242 241 241 240 240 239 239 239 239 239 239 238 238 238 238 238 237 237 237 237 237 237 237 237 237 238 238 238 238 237 237 237
335 335 335 336 336 336 336 337 338 338 338 339 339 339 340 341 342 343 344 344 344 343 340 337 336 335 331 326 322 317 314 311 309 306 301 296 290 286 281 276 271 266 262 259 257 256 255 253 251 248 247 245 244 243 242 242 241 241 240 240 239 239 239 239 238 238 238 239 238 238 238 238 237 238 238 238 238 238 238 238 238 238 238 238 238
334 334 334 334 335 335 335 336 337 337 337 338 338 338 339 340 341 342 343 343 344 344 341 338 337 336 334 329 324 320 316 313 310 308 305 299 293 289 285 281 276 271 266 261 258 257 256 255 254 251 249 247 245 244 243 242 242 241 241 240 240 240 239 239 238 238 238 239 239 239 239 239 238 238 238 238 238 238 239 239 239 239 239 239 239
333 333 333 333 334 334 334 335 336 336 336 336 337 337 338 339 339 340 342 342 343 344 343 339 337 336 335 332 327 322 318 315 312 310 307 303 297 292 287 284 280 275 270 266 262 259 257 257 255 254 252 250 248 246 244 243 242 242 241 240 240 240 239 239 239 238 238 238 238 239 239 239 239 239 239 238 238 238 238 239 239 239 239 239 239
332 332 332 332 332 333 333 334 335 335 335 335 336 335 336 338 338 339 340 341 342 344 344 341 338 337 336 334 329 325 320 316 314 312 310 306 301 295 289 285 282 278 274 270 266 262 259 258 256 256 255 253 251 248 246 244 243 242 242 241 240 240 239 239 239 238 238 238 238 238 239 239 239 239 239 239 239 239 238 238 238 239 239 239 239
331 331 331 331 331 332 332 333 334 334 334 334 335 334 335 336 337 338 338 340 341 342 343 343 340 338 337 336 332 327 323 318 315 313 311 309 305 299 292 286 282 280 277 273 270 266 263 260 258 256 255 255 253 251 249 247 244 243 242 242 241 240 240 239 239 238 238 238 238 238 238 239 239 239 239 239 239 239 239 238 238 238 238 239 239
330 330 331 330 331 331 331 331 333 333 333 333 334 333 334 335 336 337 337 338 340 341 342 343 341 339 337 337 334 330 325 321 317 314 313 311 309 304 297 289 284 280 278 276 272 269 266 263 261 258 256 255 254 253 252 250 247 245 243 242 241 241 240 239 239 238 238 238 238 238 238 238 238 239 239 239 239 239 239 239 238 238 238 238 238
330 330 330 330 330 330 330 330 331 332 332 332 332 332 332 333 335 336 336 337 338 340 341 342 342 340 338 337 336 333 328 323 320 317 315 313 311 309 303 296 287 282 278 276 274 271 268 266 264 262 259 257 255 254 253 252 249 247 245 242 241 240 240 239 239 239 238 237 237 237 238 238 238 238 239 239 240 239 239 239 239 239 238 238 238
329 329 329 329 329 329 329 329 329 330 330 331 331 331 331 332 333 334 336 336 337 338 339 340 341 341 339 337 336 334 331 327 322 319 317 315 313 312 308 303 294 285 280 276 275 273 270 268 266 264 262 260 257 256 254 253 251 249 247 244 242 240 240 239 239 239 239 238 238 237 237 237 238 238 238 239 239 240 240 240 239 239 239 239 239
328 328 328 328 328 328 328 328 328 329 329 330 330 330 330 330 331 333 335 336 336 337 338 339 340 341 340 338 336 334 332 329 325 321 318 316 314 313 311 307 300 291 283 277 274 273 271 269 267 265 264 262 260 258 256 254 253 250 248 246 243 241 240 239 239 239 239 239 238 238 238 237 238 238 238 238 239 239 240 241 241 241 240 240 240
327 327 327 327 326 327 327 326 326 327 327 328 329 329 329 329 330 332 334 335 335 336 336 337 339 340 340 340 338 336 333 331 328 325 321 317 315 313 312 309 304 297 289 281 276 273 271 270 268 266 264 263 263 261 259 257 255 252 250 247 245 243 242 240 239 239 239 239 239 239 238 238 238 238 238 238 238 239 239 240 241 241 241 241 241
325 325 325 325 325 325 325 325 325 325 326 327 327 328 328 328 329 330 332 334 334 334 335 336 337 338 339 339 339 337 335 332 330 327 325 321 317 314 313 310 307 303 296 288 280 274 272 271 270 268 265 263 263 263 262 260 258 255 252 249 247 245 243 242 241 240 240 240 239 239 239 238 238 238 239 238 238 238 238 238 239 240 240 240 240
323 323 324 324 324 324 324 324 324 324 325 326 326 326 327 327 328 329 330 332 333 334 334 334 335 336 337 338 338 338 337 334 331 329 327 325 321 317 314 312 309 307 303 296 287 279 274 271 271 270 268 265 263 263 263 263 262 259 256 253 249 247 245 244 243 242 241 241 241 240 240 239 239 239 238 238 238 238 237 237 237 238 239 239 240
322 322 323 323 322 322 323 323 322 323 324 325 325 325 325 326 326 327 329 330 332 333 333 333 334 335 336 336 337 338 338 336 333 330 328 327 324 321 317 314 311 309 306 301 294 286 278 273 270 270 270 269 267 264 263 262 263 262 261 258 254 250 247 245 244 243 242 242 242 242 241 240 240 239 239 238 238 239 239 238 238 238 238 239 239
321 321 321 321 321 321 321 321 321 322 322 323 323 323 324 324 325 326 328 329 331 331 332 332 332 333 334 335 335 336 337 337 335 333 330 328 327 325 321 317 313 310 307 304 300 294 286 278 272 269 268 268 268 268 266 263 262 261 261 261 259 256 252 249 246 244 243 242 242 242 242 241 241 241 240 239 239 239 239 239 239 239 239 239 239
320 320 320 320 319 320 320 320 320 320 321 322 322 322 322 323 323 325 326 328 329 330 330 331 331 332 333 333 333 334 336 336 337 335 332 329 328 327 324 321 316 312 309 307 304 300 294 286 278 272 268 267 266 266 266 265 263 261 260 260 260 259 257 254 251 247 245 244 243 242 242 242 241 241 241 241 240 240 240 240 240 240 240 240 240
319 319 319 319 318 319 319 319 319 319 320 321 321 321 321 321 322 323 325 327 328 329 329 329 330 330 331 332 332 333 334 335 335 336 334 332 329 327 326 324 319 315 311 308 306 304 299 293 285 277 271 267 265 264 263 263 263 262 260 258 258 258 258 257 255 253 249 247 245 243 242 242 242 241 241 241 241 241 240 240 241 241 241 241 241
319 318 318 318 318 318 318 317 317 318 318 319 319 319 320 320 320 321 323 325 327 328 328 328 328 329 330 331 331 332 332 333 334 335 335 334 332 329 327 326 323 318 314 310 307 305 302 298 292 284 276 270 266 264 263 262 261 261 260 259 258 257 256 256 255 255 253 251 249 247 245 244 242 242 241 241 241 241 240 240 240 241 241 241 241
319 318 318 317 317 317 317 316 316 317 317 318 318 318 318 319 320 320 322 324 325 327 327 327 328 328 329 329 330 331 331 332 333 334 334 334 333 331 329 327 325 322 317 312 308 305 303 300 296 291 284 276 270 265 262 262 261 261 260 260 259 258 256 255 254 253 253 252 252 250 249 247 245 244 243 242 241 240 240 240 240 240 241 241 241
319 318 317 317 317 316 316 316 316 316 317 317 316 317 317 318 319 320 321 323 323 325 326 326 326 327 328 329 329 330 330 331 332 332 332 332 332 331 330 328 327 325 321 316 311 307 303 300 297 294 289 283 277 271 266 262 261 260 260 260 259 259 258 256 255 253 251 251 250 250 250 249 248 247 246 244 243 242 241 241 240 240 240 240 241
319 318 317 317 317 316 315 315 316 316 316 316 316 316 316 317 318 319 320 321 321 322 323 324 325 325 327 328 329 329 330 330 330 331 331 331 331 330 330 329 327 326 323 320 315 310 305 300 297 294 291 288 282 277 271 266 262 259 258 258 258 258 258 258 257 255 253 251 250 249 249 248 248 248 248 247 245 244 243 242 242 241 241 241 241
319 318 318 318 317 316 315 316 316 316 316 315 315 316 316 317 317 319 320 320 320 320 321 322 323 323 325 327 328 328 329 329 329 329 329 329 329 329 328 328 327 326 325 322 319 314 308 302 297 294 292 289 286 282 276 271 266 262 259 258 257 257 257 257 258 257 256 254 252 250 249 248 247 247 247 247 247 246 244 243 242 242 242 242 242
320 319 319 318 317 316 316 316 316 316 316 315 315 315 316 317 318 319 320 319 319 319 319 319 320 321 322 324 326 327 328 328 328 328 327 327 327 327 327 326 326 325 325 324 321 318 312 306 300 295 292 290 287 284 280 276 272 268 263 260 258 257 257 256 256 256 256 256 255 254 252 250 249 248 247 246 246 246 245 244 243 242 242 242 242
321 321 320 319 317 317 317 317 317 316 316 316 316 316 316 317 318 319 319 318 318 318 318 318 319 319 321 323 324 325 326 327 327 327 326 326 326 325 325 325 325 324 324 323 322 320 316 310 304 298 293 290 288 286 282 279 275 272 268 265 262 259 257 256 256 256 256 255 255 255 254 253 252 250 249 248 247 246 245 245 244 243 242 242 242
321 321 320 318 318 318 318 318 317 317 316 316 316 316 316 317 318 318 318 317 317 317 317 317 318 319 321 322 323 324 324 325 326 326 325 324 324 323 323 323 323 323 323 323 322 320 318 314 308 302 296 291 288 285 284 281 277 273 270 268 265 263 260 258 257 256 256 256 255 254 254 254 254 253 252 250 249 248 247 246 245 244 243 242 242
320 320 319 318 318 318 318 318 317 317 317 316 316 316 316 317 317 317 316 316 316 316 316 317 317 318 320 321 322 323 323 324 325 324 324 323 322 322 322 321 321 321 321 321 321 320 319 316 312 306 300 294 289 286 284 282 280 276 272 269 267 265 263 261 259 258 257 257 256 255 254 253 253 254 254 253 252 250 249 247 246 245 244 243 242
320 319 319 319 318 318 318 317 317 317 317 316 316 317 317 317 317 316 316 315 315 315 316 316 316 317 319 320 320 321 322 323 324 324 323 323 322 321 320 320 319 319 319 319 319 319 319 317 314 309 304 297 291 287 284 282 280 279 276 272 269 266 264 263 262 260 258 257 256 256 255 254 253 253 253 254 253 253 251 250 248 247 245 244 243
319 319 319 319 319 318 318 317 317 317 317 317 317 317 317 317 316 315 315 315 315 315 315 315 315 316 317 318 319 320 321 321 322 322 322 321 321 320 319 319 318 318 318 318 318 318 318 317 314 311 306 301 294 288 284 281 279 278 277 276 273 269 266 264 262 261 260 259 258 256 256 255 254 253 253 252 253 253 252 252 251 250 248 247 245
320 320 320 319 319 318 317 317 317 317 317 318 318 318 318 317 316 315 315 314 314 314 314 314 314 315 316 317 318 318 319 320 320 320 320 320 319 319 318 318 318 317 317 317 317 317 317 316 314 311 307 303 297 291 285 281 278 277 276 275 274 272 269 267 264 262 260 260 259 258 257 256 255 254 254 253 252 252 252 252 252 252 251 250 248
321 321 320 319 318 318 317 317 317 318 318 318 318 318 318 317 316 315 315 314 314 313 313 313 313 314 315 316 317 317 318 319 319 319 319 318 318 318 317 317 317 317 316 316 316 316 316 315 314 312 308 304 299 293 287 281 277 275 274 273 273 272 271 269 266 264 262 260 259 258 258 257 256 255 255 254 254 253 253 252 252 251 251 251 250
321 321 320 319 319 318 318 318 318 319 319 319 319 318 318 317 317 316 315 314 314 313 312 312 313 314 315 316 316 317 317 318 318 318 318 317 317 317 317 316 316 316 316 316 316 315 315 314 313 312 309 306 301 295 289 283 277 274 272 271 271 271 270 270 268 266 264 262 261 260 258 257 257 256 256 255 254 254 253 253 252 251 251 250 250
321 321 320 319 319 318 318 318 318 318 319 319 318 318 318 318 317 316 316 314 313 312 312 312 312 313 314 315 316 316 317 317 317 317 317 317 317 316 316 316 316 316 316 316 316 315 315 314 313 311 309 306 302 297 292 285 279 274 271 269 269 269 269 269 268 267 265 264 263 261 260 258 257 256 256 255 254 253 252 253 253 252 252 251 250
320 320 319 319 318 318 318 318 318 318 318 318 318 318 318 318 318 317 315 314 313 312 312 312 312 313 314 314 315 316 316 316 316 316 316 316 316 316 315 315 315 316 316 316 316 315 315 314 313 311 309 306 303 298 293 287 281 276 272 269 267 267 266 266 266 266 266 264 263 262 262 260 259 257 256 256 255 253 252 251 251 252 252 252 251
319 319 318 318 318 317 317 317 317 317 317 318 318 318 318 318 317 316 315 314 313 312 312 312 312 312 313 313 314 314 315 315 315 316 316 316 315 315 315 315 315 315 315 315 315 315 314 314 313 312 310 307 304 300 294 288 283 278 273 270 267 266 265 265 265 265 264 264 263 262 262 261 260 259 258 257 256 255 254 252 251 251 251 251 252
318 317 317 317 317 316 316 316 316 316 316 317 318 318 318 317 317 316 314 313 312 312 311 311 311 311 312 312 313 313 314 314 314 314 314 314 314 314 314 314 314 314 314 315 315 314 314 313 312 311 310 308 304 301 296 290 284 278 274 271 268 266 265 265 264 264 264 263 262 261 261 260 260 260 259 258 257 256 255 254 253 252 251 251 251
317 316 316 316 316 315 315 315 314 315 315 316 317 317 316 316 315 315 314 313 312 311 311 310 310 310 311 311 311 312 312 313 313 313 313 313 313 313 313 313 314 314 314 314 314 313 313 312 312 311 309 307 304 301 297 292 286 280 275 271 269 267 265 264 264 263 263 263 262 261 260 259 259 259 259 259 258 257 256 255 254 253 253 252 251
316 316 315 315 315 314 314 314 313 313 314 314 315 315 315 314 314 314 313 313 312 311 310 310 310 310 310 310 310 311 311 311 311 311 311 311 312 312 312 312 312 313 313 313 313 313 312 311 311 310 308 306 304 301 297 293 288 282 277 272 269 268 266 265 264 263 263 263 262 262 261 260 259 258 257 257 258 258 257 256 254 253 253 252 252
Height
10156 10147 10138 10129 10121 10114 10108 10101 10093 10085 10078 10070 10063 10057 10051 10046 10041 10036 10032 10028 10024 10021 10018 10016 10014 10012 10010 10009 10009 10008 10007 10007 10007 10008 10009 10009 10010 10011 10014 10016 10019 10023 10028 10033 10038 10041 10046 10052 10057 10061 10065 10071 10077 10082 10088 10094 10101 10109 10117 10126 10134 10141 10150 10156 10165 10175 10179 10183 10194 10202 10208 10215 10225 10235 10244 10253 10262 10272 10282 10291 10297 10303 10308 10314 10320
10153 10144 10135 10126 10118 10110 10104 10097 10090 10082 10075 10067 10060 10053 10047 10042 10036 10031 10027 10023 10019 10015 10012 10009 10007 10005 10003 10002 10001 10000 9999 9999 9999 9999 10000 10000 10001 10002 10003 10005 10007 10011 10015 10020 10024 10028 10032 10038 10043 10048 10052 10057 10062 10067 10074 10080 10086 10093 10101 10108 10116 10124 10132 10139 10149 10158 10160 10163 10173 10182 10188 10196 10206 10217 10226 10234 10243 10252 10262 10272 10279 10285 10290 10297 10304
10150 10141 10132 10123 10114 10106 10099 10093 10086 10079 10072 10064 10057 10050 10043 10037 10032 10027 10022 10017 10014 10010 10007 10003 10000 9998 9996 9994 9993 9992 9991 9991 9991 9990 9991 9991 9992 9993 9994 9995 9996 9999 10003 10007 10011 10015 10019 10024 10028 10033 10038 10043 10048 10054 10060 10066 10072 10079 10086 10092 10100 10108 10115 10123 10132 10141 10144 10147 10153 10162 10169 10177 10187 10199 10206 10214 10224 10233 10242 10253 10260 10266 10272 10279 10287
10147 10139 10130 10120 10111 10102 10094 10087 10081 10075 10068 10061 10054 10047 10040 10033 10028 10022 10017 10013 10008 10004 10001 9998 9995 9992 9990 9988 9986 9984 9984 9983 9983 9982 9982 9982 9983 9983 9984 9985 9986 9989 9991 9995 9999 10002 10006 10010 10014 10019 10025 10030 10035 10039 10043 10049 10055 10063 10070 10076 10083 10091 10099 10107 10116 10124 10129 10133 10137 10144 10151 10159 10168 10179 10187 10195 10206 10215 10224 10234 10241 10247 10254 10260 10269
10145 10136 10126 10117 10108 10098 10089 10082 10076 10070 10064 10058 10051 10044 10037 10030 10024 10018 10013 10008 10003 9999 9995 9992 9990 9986 9983 9981 9979 9978 9976 9975 9975 9974 9974 9973 9974 9974 9975 9976 9976 9978 9981 9983 9987 9990 9993 9996 10000 10006 10012 10016 10019 10022 10026 10031 10037 10044 10052 10058 10065 10072 10079 10088 10098 10108 10114 10119 10124 10128 10135 10142 10151 10161 10169 10176 10186 10195 10205 10214 10222 10229 10236 10243 10251
10141 10132 10123 10113 10104 10095 10085 10078 10071 10065 10059 10053 10047 10040 10033 10026 10020 10014 10008 10003 9999 9994 9990 9986 9984 9981 9978 9975 9973 9971 9969 9968 9967 9967 9966 9965 9965 9965 9965 9966 9967 9969 9971 9973 9975 9978 9980 9984 9988 9993 9998 10001 10004 10007 10012 10017 10022 10029 10035 10041 10048 10054 10060 10068 10079 10090 10096 10103 10110 10114 10118 10125 10135 10144 10149 10156 10165 10174 10184 10195 10204 10213 10221 10227 10233
10136 10127 10118 10109 10100 10091 10082 10074 10067 10061 10055 10049 10042 10036 10029 10023 10016 10010 10004 9999 9994 9990 9986 9981 9977 9975 9972 9969 9966 9964 9962 9961 9960 9959 9959 9958 9957 9957 9957 9957 9958 9960 9961 9963 9965 9967 9969 9972 9976 9981 9985 9989 9992 9996 10000 10005 10009 10015 10020 10026 10032 10039 10046 10053 10061 10071 10079 10086 10094 10099 10102 10107 10115 10123 10129 10134 10143 10154 10165 10176 10186 10196 10205 10211 10215
10131 10122 10114 10105 10096 10088 10079 10070 10063 10056 10050 10044 10038 10032 10025 10019 10012 10006 10000 9995 9990 9985 9981 9977 9972 9968 9965 9963 9960 9958 9955 9954 9953 9952 9951 9951 9950 9949 9949 9949 9950 9951 9952 9954 9956 9957 9959 9962 9965 9969 9973 9977 9980 9985 9989 9993 9998 10002 10006 10012 10018 10025 10032 10039 10045 10053 10062 10070 10078 10084 10087 10090 10094 10103 10110 10114 10121 10135 10149 10158 10167 10176 10183 10189 10194
10126 10117 10109 10101 10092 10084 10076 10067 10059 10052 10046 10040 10034 10027 10021 10014 10008 10002 9996 9991 9986 9981 9977 9973 9969 9964 9960 9956 9954 9951 9949 9947 9946 9945 9944 9943 9943 9942 9942 9941 9941 9942 9944 9945 9946 9948 9951 9953 9956 9959 9962 9965 9969 9973 9978 9983 9987 9990 9994 9999 10006 10012 10018 10024 10030 10036 10044 10053 10062 10069 10073 10076 10080 10085 10092 10095 10102 10116 10129 10134 10141 10152 10159 10165 10173
10121 10113 10104 10096 10088 10080 10072 10064 10056 10049 10042 10036 10029 10023 10017 10011 10004 9998 9992 9987 9982 9977 9972 9968 9964 9960 9956 9951 9948 9945 9943 9940 9939 9938 9937 9936 9936 9935 9935 9934 9934 9934 9935 9936 9938 9940 9942 9944 9947 9949 9952 9955 9958 9962 9967 9971 9975 9979 9983 9988 9994 9999 10004 10009 10014 10020 10027 10035 10044 10052 10057 10063 10067 10069 10072 10077 10084 10095 10103 10108 10119 10133 10138 10142 10152
10116 10107 10100 10092 10083 10075 10067 10060 10052 10045 10038 10032 10026 10020 10013 10007 10001 9994 9988 9983 9978 9972 9967 9963 9959 9956 9952 9947 9943 9940 9937 9935 9933 9931 9931 9930 9929 9928 9928 9927 9927 9927 9927 9928 9929 9931 9933 9935 9938 9940 9942 9945 9948 9952 9955 9959 9963 9967 9971 9976 9981 9985 9990 9995 9999 10004 10011 10018 10026 10033 10041 10051 10055 10054 10054 10060 10065 10072 10081 10089 10100 10112 10116 10120 10132
10109 10101 10094 10086 10078 10070 10063 10055 10048 10041 10034 10028 10022 10016 10009 10003 9997 9991 9985 9979 9974 9968 9963 9958 9954 9951 9947 9943 9939 9935 9932 9929 9927 9925 9924 9923 9922 9921 9921 9921 9920 9920 9920 9920 9921 9923 9924 9927 9929 9931 9933 9936 9938 9941 9944 9948 9951 9955 9958 9963 9967 9972 9976 9981 9985 9990 9996 10003 10009 10016 10026 10035 10039 10037 10037 10042 10048 10053 10061 10069 10079 10090 10096 10102 10115
10103 10095 10087 10080 10073 10065 10058 10051 10043 10036 10030 10024 10017 10011 10005 9999 9993 9987 9981 9975 9970 9964 9959 9954 9950 9946 9942 9938 9935 9931 9927 9924 9921 9919 9917 9916 9916 9915 9914 9914 9914 9913 9913 9913 9914 9915 9916 9918 9920 9922 9924 9927 9929 9932 9934 9937 9939 9942 9946 9950 9954 9959 9964 9968 9973 9978 9983 9989 9995 10001 10009 10015 10018 10020 10022 10026 10030 10035 10041 10049 10060 10072 10079 10086 10099
10097 10089 10081 10074 10067 10060 10053 10046 10038 10031 10025 10019 10013 10007 10001 9995 9989 9983 9977 9972 9967 9961 9956 9950 9946 9941 9938 9934 9930 9926 9923 9919 9916 9913 9911 9910 9909 9908 9908 9907 9907 9907 9907 9906 9906 9907 9908 9910 9912 9914 9915 9917 9920 9922 9924 9926 9929 9931 9935 9938 9942 9947 9951 9956 9961 9965 9971 9977 9981 9986 9991 9996 10001 10005 10006 10008 10013 10020 10027 10034 10045 10055 10062 10070 10081
10091 10083 10075 10068 10061 10054 10047 10040 10033 10026 10020 10014 10008 10002 9996 9991 9985 9979 9973 9967 9962 9957 9952 9947 9942 9937 9933 9930 9925 9921 9918 9915 9912 9909 9906 9904 9902 9902 9901 9901 9900 9900 9900 9900 9899 9900 9901 9902 9904 9905 9907 9909 9911 9913 9915 9917 9919 9921 9924 9928 9931 9935 9939 9944 9949 9954 9959 9964 9968 9972 9976 9982 9987 9989 9990 9994 10001 10008 10014 10020 10028 10037 10045 10053 10061
10084 10077 10069 10062 10055 10048 10042 10035 10028 10022 10015 10009 10003 9998 9992 9986 9981 9975 9969 9963 9958 9953 9948 9943 9938 9933 9929 9925 9922 9917 9913 9910 9907 9904 9901 9899 9897 9895 9895 9894 9894 9893 9893 9893 9893 9893 9893 9894 9896 9897 9899 9900 9902 9904 9906 9907 9909 9912 9915 9918 9920 9924 9928 9933 9938 9943 9948 9952 9955 9959 9964 9969 9973 9975 9978 9983 9990 9995 10000 10005 10013 10021 10030 10038 10045
10076 10070 10063 10056 10049 10043 10037 10030 10024 10017 10010 10004 9998 9993 9987 9982 9976 9971 9965 9960 9954 9949 9943 9939 9934 9930 9925 9921 9917 9914 9909 9906 9903 9900 9897 9894 9892 9890 9889 9888 9887 9887 9887 9887 9887 9887 9887 9887 9888 9889 9891 9892 9893 9895 9897 9899 9901 9903 9906 9908 9911 9914 9919 9924 9927 9931 9936 9940 9944 9947 9952 9957 9961 9963 9966 9971 9977 9982 9987 9994 10002 10009 10016 10023 10031
10070 10063 10056 10049 10043 10037 10032 10026 10019 10012 10006 9999 9994 9988 9983 9978 9972 9967 9961 9956 9951 9945 9939 9934 9930 9926 9922 9917 9914 9910 9906 9902 9899 9896 9893 9890 9888 9885 9883 9882 9881 9880 9880 9880 9880 9880 9880 9880 9880 9881 9882 9884 9885 9887 9889 9890 9892 9895 9897 9899 9901 9905 9910 9914 9916 9919 9923 9927 9931 9936 9940 9945 9948 9951 9954 9958 9962 9968 9974 9983 9991 9994 10000 10009 10017
10063 10056 10049 10043 10037 10031 10025 10020 10014 10008 10001 9995 9989 9983 9978 9973 9968 9962 9957 9952 9947 9942 9936 9931 9925 9921 9917 9913 9909 9906 9902 9898 9894 9892 9889 9886 9884 9881 9879 9877 9875 9874 9874 9873 9873 9873 9874 9874 9874 9874 9875 9876 9877 9879 9880 9882 9884 9886 9888 9890 9893 9897 9901 9902 9904 9908 9912 9915 9919 9924 9928 9932 9936 9939 9942 9946 9951 9956 9963 9970 9974 9978 9987 9997 10002
10056 10050 10043 10037 10030 10024 10018 10013 10008 10002 9996 9990 9984 9978 9973 9969 9963 9958 9952 9947 9942 9938 9933 9928 9922 9917 9912 9908 9905 9902 9898 9894 9891 9887 9884 9882 9879 9877 9875 9872 9870 9869 9868 9867 9867 9867 9867 9867 9867 9868 9868 9868 9869 9870 9872 9874 9876 9878 9880 9882 9886 9890 9891 9891 9894 9898 9901 9904 9908 9912 9916 9920 9924 9927 9930 9934 9939 9944 9950 9954 9958 9965 9974 9981 9984
10049 10043 10037 10031 10024 10018 10012 10007 10002 9997 9991 9985 9979 9973 9968 9963 9959 9954 9948 9943 9938 9933 9928 9924 9918 9913 9909 9905 9901 9897 9894 9890 9886 9883 9880 9877 9875 9873 9871 9868 9866 9864 9862 9861 9861 9861 9860 9861 9861 9861 9861 9861 9861 9862 9864 9866 9868 9870 9872 9875 9878 9880 9881 9882 9884 9887 9890 9893 9896 9900 9904 9908 9912 9915 9918 9922 9927 9932 9936 9940 9945 9951 9958 9963 9968
10043 10036 10030 10024 10018 10013 10007 10001 9996 9991 9985 9980 9974 9968 9963 9958 9954 9949 9944 9938 9933 9928 9924 9919 9914 9909 9904 9900 9897 9894 9890 9886 9882 9879 9875 9872 9870 9868 9866 9864 9862 9859 9858 9856 9855 9854 9854 9854 9854 9854 9855 9855 9855 9855 9857 9858 9860 9863 9865 9867 9869 9870 9871 9873 9875 9877 9879 9882 9885 9889 9892 9896 9900 9903 9907 9911 9915 9919 9924 9928 9932 9938 9943 9948 9953
10036 10030 10024 10018 10012 10007 10001 9995 9990 9985 9980 9975 9969 9963 9957 9953 9948 9944 9939 9933 9928 9923 9919 9915 9910 9905 9900 9895 9892 9890 9887 9882 9878 9875 9871 9868 9865 9863 9861 9859 9857 9855 9853 9851 9850 9849 9848 9848 9848 9848 9848 9848 9849 9849 9850 9851 9853 9855 9857 9859 9860 9861 9862 9864 9866 9867 9870 9873 9876 9878 9881 9885 9889 9892 9896 9900 9903 9908 9913 9917 9921 9926 9931 9936 9940
10029 10023 10017 10012 10006 10000 9995 9989 9984 9979 9974 9969 9965 9959 9952 9947 9943 9939 9934 9928 9923 9919 9914 9910 9906 9902 9896 9891 9887 9884 9882 9879 9875 9871 9868 9864 9861 9859 9857 9855 9853 9851 9848 9847 9845 9844 9843 9842 9842 9842 9842 9842 9842 9842 9843 9844 9845 9847 9849 9851 9852 9853 9854 9856 9857 9859 9861 9863 9866 9868 9871 9875 9878 9882 9885 9889 9894 9899 9904 9908 9912 9916 9921 9925 9929
10022 10016 10011 10005 10000 9994 9989 9983 9978 9973 9968 9963 9959 9954 9948 9942 9937 9933 9929 9924 9918 9913 9909 9905 9901 9897 9893 9888 9883 9879 9876 9874 9871 9867 9864 9860 9857 9855 9853 9850 9848 9846 9844 9842 9840 9839 9837 9836 9836 9836 9836 9835 9835 9836 9836 9837 9838 9840 9842 9843 9845 9845 9846 9848 9849 9851 9852 9854 9856 9859 9862 9866 9869 9872 9876 9880 9885 9891 9895 9898 9901 9905 9909 9913 9918
10014 10009 10004 9999 9993 9988 9983 9977 9972 9966 9961 9957 9953 9949 9944 9938 9932 9928 9924 9919 9914 9909 9904 9900 9897 9893 9889 9885 9880 9876 9872 9869 9866 9863 9860 9856 9853 9850 9848 9846 9844 9842 9840 9838 9836 9834 9832 9831 9830 9830 9830 9830 9830 9829 9829 9830 9831 9833 9834 9836 9837 9838 9839 9840 9842 9843 9844 9846 9848 9851 9854 9858 9861 9864 9867 9871 9875 9879 9882 9885 9888 9891 9895 9900 9904
10007 10002 9997 9992 9987 9982 9977 9972 9966 9960 9955 9950 9945 9942 9938 9933 9928 9923 9919 9914 9910 9905 9900 9895 9892 9888 9885 9881 9877 9872 9868 9865 9862 9859 9855 9852 9848 9846 9843 9841 9839 9837 9836 9833 9832 9830 9828 9826 9825 9824 9824 9824 9824 9824 9824 9824 9824 9825 9827 9828 9830 9831 9832 9833 9835 9836 9837 9839 9841 9843 9846 9849 9852 9855 9858 9861 9864 9866 9869 9872 9876 9879 9882 9886 9891
9999 9994 9990 9985 9980 9976 9971 9967 9961 9956 9950 9944 9939 9935 9931 9927 9923 9919 9914 9909 9905 9900 9896 9891 9887 9883 9880 9876 9873 9868 9864 9860 9857 9854 9851 9848 9844 9841 9838 9836 9834 9833 9831 9829 9828 9826 9824 9822 9821 9820 9819 9818 9818 9819 9819 9819 9819 9819 9819 9820 9822 9824 9825 9826 9828 9829 9831 9832 9833 9835 9838 9841 9843 9845 9848 9852 9854 9856 9859 9862 9866 9869 9872 9876 9880
9991 9986 9982 9978 9973 9969 9965 9961 9956 9951 9946 9940 9934 9928 9924 9920 9917 9913 9909 9904 9899 9895 9891 9887 9882 9878 9874 9871 9868 9865 9861 9856 9852 9849 9846 9843 9840 9836 9833 9831 9830 9828 9826 9825 9823 9821 9820 9818 9817 9816 9815 9814 9813 9813 9813 9813 9814 9814 9814 9814 9814 9816 9818 9819 9821 9822 9823 9825 9826 9828 9830 9832 9834 9837 9839 9842 9845 9847 9850 9853 9856 9859 9863 9867 9870
9983 9978 9974 9970 9966 9962 9958 9954 9950 9946 9941 9936 9930 9923 9918 9913 9909 9906 9904 9900 9895 9890 9885 9881 9878 9874 9870 9866 9863 9860 9857 9853 9849 9845 9842 9839 9836 9833 9829 9827 9824 9823 9821 9820 9818 9817 9815 9814 9813 9811 9810 9809 9809 9808 9808 9808 9808 9808 9809 9809 9809 9809 9810 9812 9813 9815 9816 9817 9819 9821 9822 9824 9826 9828 9830 9832 9835 9838 9842 9845 9846 9849 9853 9857 9859
9976 9971 9966 9962 9958 9954 9951 9947 9943 9939 9935 9931 9926 9920 9913 9907 9903 9899 9897 9894 9891 9886 9881 9877 9873 9869 9865 9862 9858 9855 9851 9848 9845 9842 9838 9835 9832 9829 9826 9823 9820 9818 9816 9815 9814 9812 9811 9809 9808 9807 9806 9805 9804 9803 9803 9802 9802 9803 9803 9803 9804 9804 9804 9805 9806 9807 9808 9810 9811 9813 9814 9816 9818 9820 9822 9824 9826 9830 9833 9835 9837 9840 9843 9846 9847
9968 9963 9959 9955 9951 9947 9943 9939 9936 9932 9928 9925 9921 9916 9910 9903 9897 9892 9889 9887 9884 9881 9877 9872 9868 9864 9860 9857 9853 9850 9846 9843 9840 9837 9834 9831 9828 9824 9822 9819 9816 9814 9812 9810 9809 9808 9806 9805 9803 9802 9801 9800 9800 9799 9798 9797 9797 9797 9797 9797 9798 9798 9799 9799 9800 9800 9801 9802 9804 9805 9807 9809 9811 9812 9814 9816 9819 9821 9823 9825 9828 9830 9832 9835 9837
9961 9956 9952 9947 9943 9940 9936 9932 9928 9925 9921 9918 9915 9912 9907 9901 9894 9887 9882 9878 9876 9874 9871 9867 9863 9860 9856 9852 9848 9845 9842 9838 9835 9832 9829 9826 9824 9821 9818 9815 9812 9810 9807 9805 9804 9803 9802 9800 9799 9797 9796 9795 9794 9794 9793 9793 9792 9792 9792 9791 9792 9792 9793 9794 9794 9795 9795 9796 9796 9797 9799 9800 9802 9804 9806 9808 9810 9812 9814 9816 9818 9820 9823 9825 9827
9954 9949 9945 9940 9936 9932 9928 9924 9920 9917 9914 9911 9908 9905 9902 9897 9892 9885 9879 9873 9869 9867 9865 9862 9859 9855 9851 9847 9843 9840 9837 9834 9831 9828 9825 9822 9819 9816 9814 9811 9808 9806 9803 9801 9799 9798 9797 9796 9794 9792 9791 9790 9789 9788 9788 9788 9787 9787 9786 9786 9786 9786 9786 9787 9788 9789 9790 9790 9791 9791 9792 9793 9794 9796 9798 9800 9802 9804 9806 9808 9810 9812 9814 9815 9817
9946 9942 9937 9933 9929 9925 9921 9917 9913 9910 9907 9903 9900 9897 9894 9891 9888 9883 9877 9871 9865 9861 9859 9857 9853 9850 9847 9843 9839 9835 9832 9828 9825 9822 9820 9817 9815 9812 9810 9807 9804 9802 9799 9797 9795 9793 9792 9791 9790 9788 9787 9785 9784 9783 9783 9782 9782 9781 9781 9781 9781 9781 9781 9781 9781 9782 9783 9784 9785 9785 9786 9787 9788 9788 9790 9791 9793 9795 9798 9800 9801 9803 9805 9806 9808
9939 9934 9930 9926 9922 9918 9914 9910 9906 9903 9899 9896 9893 9890 9886 9884 9880 9877 9873 9868 9863 9858 9854 9851 9848 9845 9842 9839 9836 9832 9828 9824 9821 9818 9815 9812 9810 9807 9805 9803 9800 9798 9795 9793 9791 9789 9787 9785 9784 9783 9782 9781 9780 9778 9777 9777 9776 9776 9775 9775 9775 9775 9775 9775 9775 9776 9776 9777 9778 9779 9780 9780 9781 9782 9783 9784 9785 9787 9789 9791 9793 9795 9796 9798 9800
9931 9927 9923 9919 9915 9911 9907 9904 9900 9896 9893 9889 9886 9882 9879 9876 9873 9869 9866 9863 9859 9855 9851 9847 9844 9841 9838 9835 9832 9829 9825 9821 9817 9814 9811 9808 9805 9802 9800 9797 9795 9793 9791 9789 9786 9784 9782 9780 9779 9778 9777 9776 9775 9774 9772 9771 9770 9770 9770 9769 9769 9769 9769 9769 9770 9770 9771 9771 9772 9772 9773 9774 9774 9775 9776 9777 9778 9779 9781 9783 9784 9786 9788 9789 9791
9924 9920 9916 9912 9908 9904 9901 9897 9894 9890 9886 9883 9879 9875 9872 9869 9865 9862 9860 9856 9853 9850 9846 9842 9838 9835 9832 9829 9826 9824 9821 9818 9814 9810 9806 9803 9800 9798 9795 9792 9790 9788 9786 9784 9782 9780 9778 9776 9774 9772 9771 9770 9769 9769 9768 9766 9765 9764 9764 9763 9763 9763 9763 9763 9764 9764 9764 9765 9766 9766 9766 9767 9767 9768 9769 9770 9771 9772 9773 9775 9776 9778 9779 9781 9782
9918 9914 9910 9906 9902 9898 9894 9891 9887 9884 9880 9876 9872 9869 9865 9862 9859 9856 9853 9850 9847 9844 9841 9837 9833 9830 9826 9823 9820 9817 9815 9813 9810 9807 9804 9800 9796 9793 9791 9788 9786 9783 9781 9778 9776 9775 9773 9771 9769 9767 9765 9764 9764 9763 9762 9761 9760 9759 9758 9758 9757 9757 9757 9757 9757 9757 9758 9758 9759 9760 9760 9761 9761 9761 9762 9763 9764 9765 9766 9767 9769 9770 9771 9773 9774
9911 9907 9903 9899 9895 9891 9888 9884 9880 9877 9873 9870 9866 9863 9859 9856 9852 9849 9846 9844 9841 9838 9836 9833 9829 9825 9821 9818 9815 9812 9809 9806 9804 9802 9799 9796 9793 9790 9787 9784 9782 9779 9777 9774 9772 9769 9767 9765 9763 9761 9760 9758 9757 9757 9756 9755 9754 9754 9753 9752 9752 9751 9751 9751 9751 9751 9751 9752 9752 9753 9754 9754 9755 9755 9756 9756 9757 9758 9759 9760 9761 9762 9764 9765 9766
9904 9900 9897 9893 9889 9885 9881 9878 9874 9870 9867 9864 9860 9857 9853 9850 9846 9843 9840 9837 9834 9832 9829 9827 9824 9821 9817 9814 9810 9807 9804 9801 9798 9796 9793 9790 9788 9785 9782 9780 9777 9775 9773 9770 9768 9765 9763 9760 9758 9756 9754 9753 9751 9750 9749 9749 9748 9747 9747 9746 9746 9745 9745 9745 9744 9744 9745 9745 9745 9746 9746 9747 9748 9749 9749 9750 9750 9751 9752 9753 9754 9755 9756 9757 9758
9897 9893 9890 9886 9882 9878 9875 9871 9868 9864 9861 9857 9854 9851 9847 9844 9841 9837 9834 9831 9828 9825 9823 9820 9818 9815 9813 9810 9807 9803 9800 9797 9794 9791 9788 9785 9783 9780 9777 9775 9773 9770 9768 9765 9763 9761 9759 9756 9753 9751 9749 9747 9746 9744 9743 9742 9742 9741 9740 9739 9739 9739 9739 9739 9738 9738 9738 9738 9738 9739 9740 9740 9741 9742 9743 9743 9744 9744 9745 9746 9746 9747 9748 9750 9751
9890 9886 9883 9879 9875 9872 9868 9865 9861 9858 9855 9851 9848 9845 9842 9838 9835 9832 9828 9825 9822 9819 9817 9814 9812 9809 9807 9804 9802 9799 9796 9793 9790 9787 9784 9781 9778 9775 9772 9770 9767 9765 9763 9760 9758 9755 9753 9751 9749 9746 9744 9742 9740 9738 9737 9736 9735 9735 9734 9733 9733 9732 9732 9732 9732 9732 9732 9732 9732 9732 9732 9733 9734 9734 9735 9736 9737 9738 9738 9739 9740 9740 9741 9742 9743
9884 9880 9876 9873 9869 9865 9862 9859 9855 9852 9848 9845 9842 9839 9836 9833 9829 9826 9823 9820 9816 9814 9811 9808 9806 9803 9801 9798 9796 9793 9790 9788 9785 9782 9778 9776 9773 9770 9767 9765 9762 9760 9757 9755 9752 9750 9748 9745 9743 9741 9738 9736 9734 9733 9731 9730 9729 9728 9728 9727 9726 9726 9725 9725 9725 9725 9725 9726 9726 9726 9726 9726 9726 9727 9728 9729 9730 9731 9731 9732 9733 9733 9734 9735 9736
9877 9873 9869 9866 9862 9859 9855 9852 9848 9845 9842 9839 9836 9833 9830 9826 9823 9820 9817 9814 9811 9808 9805 9802 9800 9797 9794 9792 9789 9787 9784 9781 9779 9776 9773 9770 9767 9764 9761 9759 9757 9754 9752 9749 9746 9744 9742 9739 9737 9735 9733 9730 9728 9727 9725 9724 9723 9722 9722 9721 9720 9720 9719 9718 9718 9718 9718 9718 9719 9719 9719 9719 9720 9720 9721 9722 9723 9723 9724 9725 9726 9727 9727 9728 9729
9870 9866 9863 9859 9856 9852 9849 9845 9842 9839 9836 9833 9830 9827 9823 9820 9817 9814 9811 9808 9805 9803 9800 9797 9794 9791 9788 9785 9782 9780 9777 9774 9772 9769 9766 9764 9761 9758 9755 9753 9750 9748 9745 9743 9740 9738 9735 9733 9731 9729 9727 9725 9723 9720 9719 9717 9716 9716 9715 9714 9714 9713 9713 9712 9712 9711 9711 9711 9711 9712 9712 9713 9713 9713 9714 9714 9715 9716 9717 9718 9718 9719 9720 9721 9722
9864 9860 9856 9852 9849 9846 9842 9839 9836 9833 9830 9826 9823 9820 9817 9814 9811 9808 9805 9802 9799 9797 9794 9791 9788 9785 9782 9779 9776 9773 9770 9767 9765 9762 9759 9757 9754 9752 9749 9747 9744 9741 9739 9736 9733 9731 9728 9726 9724 9722 9720 9718 9716 9714 9713 9711 9710 9709 9708 9708 9707 9707 9706 9706 9705 9705 9705 9704 9704 9704 9705 9705 9706 9707 9707 9707 9708 9709 9710 9711 9712 9712 9713 9714 9715
9857 9853 9849 9846 9842 9839 9836 9833 9829 9826 9823 9820 9817 9814 9810 9807 9804 9801 9799 9796 9793 9790 9787 9785 9782 9779 9776 9773 9770 9767 9764 9761 9758 9755 9752 9750 9747 9745 9742 9740 9737 9735 9732 9730 9727 9724 9722 9719 9717 9715 9713 9711 9709 9708 9706 9704 9703 9702 9701 9701 9700 9700 9700 9699 9699 9699 9698 9698 9698 9697 9697 9698 9698 9699 9700 9700 9701 9701 9702 9703 9704 9705 9706 9707 9707
9850 9847 9843 9839 9836 9832 9829 9826 9823 9820 9816 9813 9810 9807 9804 9801 9798 9795 9792 9790 9787 9784 9781 9778 9775 9772 9769 9766 9763 9760 9757 9754 9751 9748 9746 9743 9741 9738 9735 9733 9730 9728 9725 9723 9720 9718 9715 9712 9710 9708 9705 9704 9702 9700 9699 9698 9696 9695 9694 9693 9693 9693 9693 9692 9692 9692 9692 9692 9691 9691 9691 9691 9691 9692 9692 9693 9694 9694 9695 9695 9696 9697 9698 9699 9700
9843 9839 9836 9832 9829 9825 9822 9819 9816 9813 9810 9806 9803 9800 9797 9794 9791 9789 9786 9783 9780 9777 9774 9771 9768 9765 9762 9759 9756 9753 9750 9747 9744 9742 9739 9736 9734 9731 9728 9726 9723 9721 9718 9716 9713 9710 9708 9705 9703 9701 9698 9696 9694 9693 9691 9690 9689 9688 9687 9686 9686 9686 9685 9685 9685 9685 9685 9685 9684 9684 9684 9684 9684 9684 9685 9685 9686 9687 9687 9688 9689 9690 9690 9691 9693
9835 9832 9828 9825 9821 9818 9815 9812 9809 9806 9802 9799 9796 9793 9790 9787 9785 9782 9779 9776 9773 9770 9766 9763 9760 9757 9754 9751 9748 9746 9743 9740 9738 9735 9732 9729 9727 9724 9721 9719 9716 9714 9711 9709 9706 9703 9701 9698 9696 9693 9691 9689 9687 9686 9684 9683 9681 9681 9680 9679 9679 9678 9678 9678 9678 9678 9678 9677 9677 9677 9677 9677 9677 9677 9678 9678 9678 9679 9680 9681 9681 9682 9683 9684 9685